ES0THZ-9 Weather Reports


time (UTC)temp
C
wind
direction
speed
KPH
gust
KPH
rain 1hr
cm
rain 24hr
cm
rain mn
cm
humidity
%
barometer
mb
20260508105857 14 48 11.3 17.7 0.00 0.00 0.00 38 1024.4
20260508104855 14 62 11.3 20.9 0.00 0.00 0.00 37 1024.4
20260508103853 14 58 11.3 25.7 0.00 0.00 0.00 37 1024.4
20260508102851 14 50 9.7 22.5 0.00 0.00 0.00 39 1024.4
20260508101849 14 50 11.3 25.7 0.00 0.00 0.00 38 1024.4
20260508100927 14 53 9.7 19.3 0.00 0.00 0.00 39 1024.4
20260508095845 14 61 9.7 17.7 0.00 0.00 0.00 37 1024.6
20260508094843 14 50 11.3 19.3 0.00 0.00 0.00 36 1024.5
20260508093841 14 56 12.9 22.5 0.00 0.00 0.00 35 1024.6
20260508092839 14 55 11.3 22.5 0.00 0.00 0.00 34 1024.6
20260508091837 14 73 12.9 19.3 0.00 0.00 0.00 34 1024.6
20260508090835 14 69 11.3 20.9 0.00 0.00 0.00 34 1024.7
20260508085832 14 61 16.1 25.7 0.00 0.00 0.00 35 1024.6
20260508084831 14 61 12.9 22.5 0.00 0.00 0.00 36 1024.7
20260508083908 14 55 9.7 14.5 0.00 0.00 0.00 35 1024.8
20260508082828 14 55 16.1 25.7 0.00 0.00 0.00 35 1024.8
20260508081905 14 58 12.9 22.5 0.00 0.00 0.00 36 1024.6
20260508080822 14 63 14.5 22.5 0.00 0.00 0.00 38 1024.6
20260508075822 13 55 14.5 22.5 0.00 0.00 0.00 39 1024.6
20260508074818 13 66 14.5 30.6 0.00 0.00 0.00 41 1024.5
20260508073817 13 52 12.9 22.5 0.00 0.00 0.00 44 1024.4
20260508072815 13 55 12.9 24.1 0.00 0.00 0.00 46 1024.3
20260508071813 12 59 14.5 24.1 0.00 0.00 0.00 48 1024.3
20260508070810 12 57 16.1 27.4 0.00 0.00 0.00 49 1024.3
20260508065810 12 54 12.9 22.5 0.00 0.00 0.00 51 1024.2
20260508064806 12 53 14.5 27.4 0.00 0.00 0.00 51 1024.1
20260508063805 11 63 11.3 20.9 0.00 0.00 0.00 53 1024.0
20260508062802 11 51 14.5 22.5 0.00 0.00 0.00 53 1023.9
20260508061801 11 55 17.7 27.4 0.00 0.00 0.00 54 1023.8
20260508060759 11 62 9.7 17.7 0.00 0.00 0.00 57 1023.8
20260508055756 10 56 12.9 19.3 0.00 0.00 0.00 59 1023.7
20260508054755 10 59 11.3 24.1 0.00 0.00 0.00 61 1023.6
20260508053753 10 54 11.3 19.3 0.00 0.00 0.00 63 1023.5
20260508052751 9 54 11.3 24.1 0.00 0.00 0.00 65 1023.5
20260508051749 9 55 12.9 22.5 0.00 0.00 0.00 66 1023.4
20260508050807 8 57 9.7 19.3 0.00 0.00 0.00 69 1023.3
20260508045745 8 55 11.3 17.7 0.00 0.00 0.00 70 1023.1
20260508044744 7 57 9.7 16.1 0.00 0.00 0.00 71 1023.0
20260508043742 7 54 9.7 19.3 0.00 0.00 0.00 71 1023.0
20260508042738 7 54 9.7 22.5 0.00 0.00 0.00 71 1022.9
20260508041737 6 55 9.7 19.3 0.00 0.00 0.00 72 1022.7
20260508040737 6 56 8.0 17.7 0.00 0.00 0.00 72 1022.6
20260508035754 6 57 6.4 14.5 0.00 0.00 0.00 72 1022.6
20260508034731 5 61 6.4 16.1 0.00 0.00 0.00 73 1022.4
20260508033728 5 55 6.4 11.3 0.00 0.00 0.00 73 1022.3
20260508032728 4 54 4.8 11.3 0.00 0.00 0.00 73 1022.3
20260508031744 4 63 4.8 9.7 0.00 0.00 0.00 73 1022.2
20260508030723 3 56 3.2 9.7 0.00 0.00 0.00 73 1022.1
20260508025721 3 64 4.8 9.7 0.00 0.00 0.00 73 1022.0
20260508024719 3 65 3.2 8.0 0.00 0.00 0.00 73 1021.9
20260508023717 3 61 3.2 6.4 0.00 0.00 0.00 72 1021.9
20260508022735 3 45 3.2 6.4 0.00 0.00 0.00 72 1021.8
20260508021713 3 45 3.2 6.4 0.00 0.00 0.00 72 1021.6
20260508020731 3 67 3.2 9.7 0.00 0.00 0.00 71 1021.5
20260508015709 3 62 4.8 8.0 0.00 0.00 0.00 70 1021.5
20260508014707 3 62 6.4 9.7 0.00 0.00 0.00 70 1021.4
20260508013705 4 61 6.4 11.3 0.00 0.00 0.00 69 1021.3
20260508012704 4 64 3.2 9.7 0.00 0.00 0.00 68 1021.3
20260508011701 4 55 4.8 9.7 0.00 0.00 0.00 68 1021.1
20260508010700 4 52 3.2 9.7 0.00 0.00 0.00 67 1021.1
20260508005657 4 58 3.2 9.7 0.00 0.00 0.00 65 1021.0
20260508004655 4 58 3.2 8.0 0.00 0.00 0.00 64 1020.9
20260508003713 4 45 3.2 8.0 0.00 0.00 0.00 63 1020.8
20260508002651 4 55 3.2 6.4 0.00 0.00 0.00 62 1020.7
20260508001649 4 49 3.2 11.3 0.00 0.00 0.00 61 1020.6
20260508000646 4 49 3.2 11.3 0.00 0.00 0.00 61 1020.6
20260507235645 5 53 3.2 9.7 0.00 0.00 0.00 60 1020.5
20260507234643 5 59 3.2 9.7 0.00 0.00 0.00 59 1020.4
20260507233641 5 53 4.8 11.3 0.00 0.00 0.00 58 1020.3
20260507232639 5 51 3.2 11.3 0.00 0.00 0.00 57 1020.1
20260507231637 5 52 3.2 11.3 0.00 0.00 0.00 56 1020.0
20260507230635 5 54 4.8 11.3 0.00 0.00 0.00 56 1019.9
20260507225632 5 54 3.2 9.7 0.00 0.00 0.00 56 1019.8
20260507224651 5 60 3.2 9.7 0.00 0.00 0.00 56 1019.7
20260507223631 5 53 3.2 9.7 0.00 0.00 0.00 56 1019.6
20260507222647 5 55 3.2 11.3 0.00 0.00 0.00 56 1019.5
20260507221625 5 55 4.8 11.3 0.00 0.00 0.00 56 1019.5
20260507220623 5 56 3.2 9.7 0.00 0.00 0.00 57 1019.4
20260507215621 5 54 3.2 9.7 0.00 0.00 0.00 57 1019.3
20260507214619 5 62 3.2 9.7 0.00 0.00 0.00 57 1019.1
20260507213638 5 56 3.2 12.9 0.00 0.00 0.00 58 1019.0
20260507212635 5 51 3.2 8.0 0.00 0.00 0.00 58 1018.9
20260507211613 6 45 3.2 9.7 0.00 0.00 0.00 58 1018.8
20260507210651 6 45 3.2 8.0 0.00 0.00 0.00 58 1018.7
20260507205609 6 57 6.4 17.7 0.00 0.00 0.00 57 1018.6
20260507204608 6 58 6.4 14.5 0.00 0.00 0.00 57 1018.6
20260507203605 6 57 6.4 14.5 0.00 0.00 0.00 57 1018.4
20260507202605 6 55 6.4 14.5 0.00 0.00 0.00 58 1018.4
20260507201600 6 56 3.2 11.3 0.00 0.00 0.00 59 1018.2
20260507200559 6 36 3.2 9.7 0.00 0.00 0.00 59 1018.0
20260507195557 6 24 3.2 8.0 0.00 0.00 0.00 59 1017.8
20260507194555 7 21 3.2 9.7 0.00 0.00 0.00 59 1017.7
20260507193552 7 17 3.2 8.0 0.00 0.00 0.00 58 1017.6
20260507192551 7 22 4.8 9.7 0.00 0.00 0.00 58 1017.5
20260507191549 7 4 3.2 11.3 0.00 0.00 0.00 57 1017.4
20260507190607 8 25 3.2 9.7 0.00 0.00 0.00 55 1017.3
20260507185545 8 353 3.2 11.3 0.00 0.00 0.00 54 1017.2
20260507184543 9 348 4.8 14.5 0.00 0.00 0.00 52 1017.0
20260507183621 10 3 3.2 9.7 0.00 0.00 0.00 50 1016.9
20260507182559 11 5 3.2 8.0 0.00 0.00 0.00 46 1016.7
20260507181537 11 10 4.8 12.9 0.00 0.00 0.00 44 1016.5
20260507180535 12 37 3.2 16.1 0.00 0.00 0.00 41 1016.5
20260507175554 12 52 4.8 11.3 0.00 0.00 0.00 36 1016.4
20260507174531 12 44 6.4 19.3 0.00 0.00 0.00 35 1016.2
20260507173529 12 47 11.3 22.5 0.00 0.00 0.00 33 1016.1
20260507172527 12 49 11.3 22.5 0.00 0.00 0.00 34 1015.9
20260507171525 13 51 9.7 22.5 0.00 0.00 0.00 34 1015.8
20260507170523 13 45 8.0 14.5 0.00 0.00 0.00 34 1015.8
20260507165521 13 51 9.7 22.5 0.00 0.00 0.00 34 1015.7
20260507164539 13 49 9.7 22.5 0.00 0.00 0.00 34 1015.6
20260507163517 14 48 9.7 22.5 0.00 0.00 0.00 34 1015.6
20260507162516 14 49 9.7 24.1 0.00 0.00 0.00 35 1015.4
20260507161513 14 48 9.7 22.5 0.00 0.00 0.00 35 1015.4
20260507160511 14 47 11.3 20.9 0.00 0.00 0.00 34 1015.3
20260507155510 15 47 11.3 25.7 0.00 0.00 0.00 35 1015.1
20260507154527 15 51 9.7 19.3 0.00 0.00 0.00 35 1015.0
20260507153504 14 54 11.3 22.5 0.00 0.00 0.00 36 1014.9
20260507152531 14 29 6.4 14.5 0.00 0.00 0.00 36 1014.9
20260507151501 14 41 9.7 22.5 0.00 0.00 0.00 36 1014.9
20260507150500 14 53 9.7 17.7 0.00 0.00 0.00 36 1014.8
20260507145457 15 55 6.4 17.7 0.00 0.00 0.00 37 1014.7
20260507144455 14 320 4.8 11.3 0.00 0.00 0.00 37 1014.7
20260507143513 15 181 3.2 11.3 0.00 0.00 0.00 40 1014.6
20260507142451 15 107 6.4 12.9 0.00 0.00 0.00 42 1014.6
20260507141509 15 316 4.8 14.5 0.00 0.00 0.00 31 1014.5
20260507140447 15 55 4.8 9.7 0.00 0.00 0.00 41 1014.4
20260507135446 15 240 4.8 11.3 0.00 0.00 0.00 44 1014.3
20260507134443 15 239 6.4 14.5 0.00 0.00 0.00 44 1014.3
20260507133441 15 174 4.8 9.7 0.00 0.00 0.00 45 1014.4
20260507132458 15 226 4.8 11.3 0.00 0.00 0.00 45 1014.3
20260507131437 15 221 6.4 11.3 0.00 0.00 0.00 47 1014.4
20260507130455 15 225 4.8 12.9 0.00 0.00 0.00 45 1014.3
20260507125434 15 207 6.4 11.3 0.00 0.00 0.00 46 1014.2
20260507124451 15 225 3.2 11.3 0.00 0.00 0.00 48 1014.2
20260507123430 15 209 4.8 11.3 0.00 0.00 0.00 48 1014.2
20260507122427 15 149 4.8 12.9 0.00 0.00 0.00 48 1014.3
20260507121426 15 161 3.2 9.7 0.00 0.00 0.00 48 1014.3
20260507120423 15 90 3.2 8.0 0.00 0.00 0.00 45 1014.2
20260507115421 14 140 3.2 11.3 0.00 0.00 0.00 46 1014.1
20260507114500 14 124 6.4 11.3 0.00 0.00 0.00 44 1014.0
20260507113417 15 147 4.8 11.3 0.00 0.00 0.00 45 1014.0
20260507112414 15 195 1.6 6.4 0.00 0.00 0.00 46 1014.0
20260507111413 14 211 6.4 14.5 0.00 0.00 0.00 45 1014.0
20260507110411 15 174 6.4 25.7 0.00 0.00 0.00 44 1013.9